"Period start","avg(HW err(1)/warn(2) (#))","avg(Visibility (m))","avg(Weather code (#))","avg(Precip intensity (mm/h))","min(HW err(1)/warn(2) (#))","max(HW err(1)/warn(2) (#))","std(HW err(1)/warn(2) (#))","med(HW err(1)/warn(2) (#))","min(Visibility (m))","max(Visibility (m))","std(Visibility (m))","med(Visibility (m))","min(Weather code (#))","max(Weather code (#))","std(Weather code (#))","med(Weather code (#))","min(Precip intensity (mm/h))","max(Precip intensity (mm/h))","std(Precip intensity (mm/h))","med(Precip intensity (mm/h))"
2014-08-05 00:00:00,0,8428,61,6.85,0,0,0,0,7501,10638,875,8230,61,62,0,61,3.30,10.10,2.24,6.55
2014-08-05 00:10:00,0,7761,61,7.55,0,0,0,0,5827,10163,1471,7476,61,62,0,61,2.85,14.95,3.93,5.95
2014-08-05 00:20:00,0,10614,61,0.89,0,0,0,0,7769,13628,1599,10822,61,61,0,61,0.45,2.55,0.58,0.78
2014-08-05 00:30:00,0,10214,53,1.25,0,0,0,0,6450,13282,2085,10494,52,61,3,52,0.60,1.85,0.48,1.30
2014-08-05 00:40:00,0,19760,52,0.36,0,0,0,0,11685,26344,5118,20510,51,52,0,52,0.15,0.70,0.15,0.35
2014-08-05 00:50:00,0,24079,51,0.35,0,0,0,0,17047,34640,4986,24350,51,51,0,51,0.15,0.90,0.21,0.30
2014-08-05 01:00:00,0,37636,49,0.23,0,0,0,0,28026,50000,8036,37346,0,61,17,51,0.00,1.15,0.33,0.12
2014-08-05 01:10:00,0,45345,0,0.00,0,0,0,0,37579,50000,4112,46170,0,0,0,0,0.00,0.00,0.00,0.00
2014-08-05 01:20:00,0,45313,12,0.01,0,0,0,0,35598,50000,5284,48146,0,61,24,0,0.00,0.15,0.05,0.00
2014-08-05 01:30:00,0,39768,46,0.10,0,0,0,0,30253,49301,6752,38194,0,51,15,51,0.00,0.25,0.07,0.08
2014-08-05 01:40:00,0,38429,0,0.00,0,0,0,0,26132,49433,6099,37728,0,0,0,0,0.00,0.00,0.00,0.00
2014-08-05 01:50:00,0,37295,0,0.00,0,0,0,0,30459,46672,4743,36800,0,0,0,0,0.00,0.00,0.00,0.00
2014-08-05 02:00:00,0,47538,0,0.00,0,0,0,0,40244,50000,3060,49176,0,0,0,0,0.00,0.00,0.00,0.00
2014-08-05 02:10:00,0,26661,37,0.84,0,0,0,0,11628,50000,13861,20495,0,61,30,61,0.00,2.05,0.82,0.62
2014-08-05 02:20:00,0,29227,54,0.34,0,0,0,0,9934,46352,13379,31242,51,61,5,51,0.10,1.25,0.32,0.23
2014-08-05 02:30:00,0,39986,55,0.89,0,0,0,0,28825,50000,6844,42387,51,61,5,51,0.20,1.95,0.64,0.57
2014-08-05 02:40:00,0,41948,57,0.86,0,0,0,0,22883,50000,9898,48164,51,61,5,61,0.25,1.90,0.53,0.75
2014-08-05 02:50:00,0,49191,45,0.26,0,0,0,0,45524,50000,1617,50000,0,61,23,51,0.00,1.25,0.39,0.08
2014-08-05 03:00:00,0,50000,0,0.00,0,0,0,0,50000,50000,0,50000,0,0,0,0,0.00,0.00,0.00,0.00
2014-08-05 03:10:00,0,50000,0,0.00,0,0,0,0,50000,50000,0,50000,0,0,0,0,0.00,0.00,0.00,0.00
2014-08-05 03:20:00,0,49992,0,0.00,0,0,0,0,49925,50000,22,50000,0,0,0,0,0.00,0.00,0.00,0.00
2014-08-05 03:30:00,0,49862,0,0.00,0,0,0,0,48616,50000,415,50000,0,0,0,0,0.00,0.00,0.00,0.00
2014-08-05 03:40:00,0,50000,0,0.00,0,0,0,0,50000,50000,0,50000,0,0,0,0,0.00,0.00,0.00,0.00
2014-08-05 03:50:00,0,50000,0,0.00,0,0,0,0,50000,50000,0,50000,0,0,0,0,0.00,0.00,0.00,0.00
2014-08-05 04:00:00,0,50000,0,0.00,0,0,0,0,50000,50000,0,50000,0,0,0,0,0.00,0.00,0.00,0.00
2014-08-05 04:10:00,0,48581,0,0.00,0,0,0,0,45419,50000,1812,49824,0,0,0,0,0.00,0.00,0.00,0.00
2014-08-05 04:20:00,0,49795,0,0.00,0,0,0,0,47948,50000,616,50000,0,0,0,0,0.00,0.00,0.00,0.00
2014-08-05 04:30:00,0,50000,0,0.00,0,0,0,0,50000,50000,0,50000,0,0,0,0,0.00,0.00,0.00,0.00
2014-08-05 04:40:00,0,50000,0,0.00,0,0,0,0,50000,50000,0,50000,0,0,0,0,0.00,0.00,0.00,0.00
2014-08-05 04:50:00,0,49031,0,0.00,0,0,0,0,44343,50000,1770,49999,0,0,0,0,0.00,0.00,0.00,0.00
2014-08-05 05:00:00,0,50000,0,0.00,0,0,0,0,50000,50000,0,50000,0,0,0,0,0.00,0.00,0.00,0.00
2014-08-05 05:10:00,0,50000,0,0.00,0,0,0,0,50000,50000,0,50000,0,0,0,0,0.00,0.00,0.00,0.00
2014-08-05 05:20:00,0,50000,0,0.00,0,0,0,0,50000,50000,0,50000,0,0,0,0,0.00,0.00,0.00,0.00
2014-08-05 05:30:00,0,49453,0,0.00,0,0,0,0,44533,50000,1640,50000,0,0,0,0,0.00,0.00,0.00,0.00
2014-08-05 05:40:00,0,49617,0,0.00,0,0,0,0,47515,50000,807,50000,0,0,0,0,0.00,0.00,0.00,0.00
2014-08-05 05:50:00,0,50000,0,0.00,0,0,0,0,50000,50000,0,50000,0,0,0,0,0.00,0.00,0.00,0.00
2014-08-05 06:00:00,0,49634,0,0.00,0,0,0,0,47447,50000,800,50000,0,0,0,0,0.00,0.00,0.00,0.00
2014-08-05 06:10:00,0,49679,0,0.00,0,0,0,0,46789,50000,963,50000,0,0,0,0,0.00,0.00,0.00,0.00
2014-08-05 06:20:00,0,50000,0,0.00,0,0,0,0,50000,50000,0,50000,0,0,0,0,0.00,0.00,0.00,0.00
2014-08-05 06:30:00,0,50000,0,0.00,0,0,0,0,50000,50000,0,50000,0,0,0,0,0.00,0.00,0.00,0.00
2014-08-05 06:40:00,0,49997,0,0.00,0,0,0,0,49972,50000,8,50000,0,0,0,0,0.00,0.00,0.00,0.00
2014-08-05 06:50:00,0,50000,0,0.00,0,0,0,0,50000,50000,0,50000,0,0,0,0,0.00,0.00,0.00,0.00
2014-08-05 07:00:00,0,50000,0,0.00,0,0,0,0,50000,50000,0,50000,0,0,0,0,0.00,0.00,0.00,0.00
2014-08-05 07:10:00,0,50000,0,0.00,0,0,0,0,50000,50000,0,50000,0,0,0,0,0.00,0.00,0.00,0.00
2014-08-05 07:20:00,0,50000,0,0.00,0,0,0,0,50000,50000,0,50000,0,0,0,0,0.00,0.00,0.00,0.00
2014-08-05 07:30:00,0,49997,0,0.00,0,0,0,0,49972,50000,8,50000,0,0,0,0,0.00,0.00,0.00,0.00
2014-08-05 07:40:00,0,49994,0,0.00,0,0,0,0,49935,50000,20,50000,0,0,0,0,0.00,0.00,0.00,0.00
2014-08-05 07:50:00,0,49935,0,0.00,0,0,0,0,49353,50000,194,50000,0,0,0,0,0.00,0.00,0.00,0.00
2014-08-05 08:00:00,0,49748,0,0.00,0,0,0,0,47476,50000,757,50000,0,0,0,0,0.00,0.00,0.00,0.00
2014-08-05 08:10:00,0,49693,0,0.00,0,0,0,0,46992,50000,900,50000,0,0,0,0,0.00,0.00,0.00,0.00
2014-08-05 08:20:00,0,49985,0,0.00,0,0,0,0,49846,50000,46,50000,0,0,0,0,0.00,0.00,0.00,0.00
2014-08-05 08:30:00,0,49392,0,0.00,0,0,0,0,43952,50000,1813,50000,0,0,0,0,0.00,0.00,0.00,0.00
2014-08-05 08:40:00,0,49714,0,0.00,0,0,0,0,47141,50000,858,50000,0,0,0,0,0.00,0.00,0.00,0.00
2014-08-05 08:50:00,0,49948,0,0.00,0,0,0,0,49477,50000,157,50000,0,0,0,0,0.00,0.00,0.00,0.00
2014-08-05 09:00:00,0,50000,0,0.00,0,0,0,0,50000,50000,0,50000,0,0,0,0,0.00,0.00,0.00,0.00
2014-08-05 09:10:00,0,50000,0,0.00,0,0,0,0,50000,50000,0,50000,0,0,0,0,0.00,0.00,0.00,0.00
2014-08-05 09:20:00,0,50000,0,0.00,0,0,0,0,50000,50000,0,50000,0,0,0,0,0.00,0.00,0.00,0.00
2014-08-05 09:30:00,0,50000,0,0.00,0,0,0,0,50000,50000,0,50000,0,0,0,0,0.00,0.00,0.00,0.00
2014-08-05 09:40:00,0,50000,0,0.00,0,0,0,0,50000,50000,0,50000,0,0,0,0,0.00,0.00,0.00,0.00
2014-08-05 09:50:00,0,49868,0,0.00,0,0,0,0,48677,50000,397,50000,0,0,0,0,0.00,0.00,0.00,0.00
2014-08-05 10:00:00,0,50000,0,0.00,0,0,0,0,50000,50000,0,50000,0,0,0,0,0.00,0.00,0.00,0.00
2014-08-05 10:10:00,0,50000,0,0.00,0,0,0,0,50000,50000,0,50000,0,0,0,0,0.00,0.00,0.00,0.00
2014-08-05 10:20:00,0,50000,0,0.00,0,0,0,0,50000,50000,0,50000,0,0,0,0,0.00,0.00,0.00,0.00
2014-08-05 10:30:00,0,50000,0,0.00,0,0,0,0,50000,50000,0,50000,0,0,0,0,0.00,0.00,0.00,0.00
2014-08-05 10:40:00,0,49978,0,0.00,0,0,0,0,49778,50000,67,50000,0,0,0,0,0.00,0.00,0.00,0.00
2014-08-05 10:50:00,0,49969,0,0.00,0,0,0,0,49689,50000,93,50000,0,0,0,0,0.00,0.00,0.00,0.00
2014-08-05 11:00:00,0,50000,0,0.00,0,0,0,0,50000,50000,0,50000,0,0,0,0,0.00,0.00,0.00,0.00
2014-08-05 11:10:00,0,50000,0,0.00,0,0,0,0,50000,50000,0,50000,0,0,0,0,0.00,0.00,0.00,0.00
2014-08-05 11:20:00,0,49934,0,0.00,0,0,0,0,49340,50000,198,50000,0,0,0,0,0.00,0.00,0.00,0.00
2014-08-05 11:30:00,0,49880,0,0.00,0,0,0,0,48802,50000,359,50000,0,0,0,0,0.00,0.00,0.00,0.00
2014-08-05 11:40:00,0,49841,0,0.00,0,0,0,0,48412,50000,476,50000,0,0,0,0,0.00,0.00,0.00,0.00
2014-08-05 11:50:00,0,50000,0,0.00,0,0,0,0,50000,50000,0,50000,0,0,0,0,0.00,0.00,0.00,0.00
2014-08-05 12:00:00,0,49988,0,0.00,0,0,0,0,49878,50000,37,50000,0,0,0,0,0.00,0.00,0.00,0.00
2014-08-05 12:10:00,0,50000,0,0.00,0,0,0,0,50000,50000,0,50000,0,0,0,0,0.00,0.00,0.00,0.00
2014-08-05 12:20:00,0,49629,0,0.00,0,0,0,0,46811,50000,952,50000,0,0,0,0,0.00,0.00,0.00,0.00
2014-08-05 12:30:00,0,50000,0,0.00,0,0,0,0,50000,50000,0,50000,0,0,0,0,0.00,0.00,0.00,0.00
2014-08-05 12:40:00,0,50000,0,0.00,0,0,0,0,50000,50000,0,50000,0,0,0,0,0.00,0.00,0.00,0.00
2014-08-05 12:50:00,0,50000,0,0.00,0,0,0,0,50000,50000,0,50000,0,0,0,0,0.00,0.00,0.00,0.00
2014-08-05 13:00:00,0,49745,0,0.00,0,0,0,0,48224,50000,557,50000,0,0,0,0,0.00,0.00,0.00,0.00
2014-08-05 13:10:00,0,50000,0,0.00,0,0,0,0,50000,50000,0,50000,0,0,0,0,0.00,0.00,0.00,0.00
2014-08-05 13:20:00,0,50000,0,0.00,0,0,0,0,50000,50000,0,50000,0,0,0,0,0.00,0.00,0.00,0.00
2014-08-05 13:30:00,0,50000,0,0.00,0,0,0,0,50000,50000,0,50000,0,0,0,0,0.00,0.00,0.00,0.00
2014-08-05 13:40:00,0,50000,0,0.00,0,0,0,0,50000,50000,0,50000,0,0,0,0,0.00,0.00,0.00,0.00
2014-08-05 13:50:00,0,49824,0,0.00,0,0,0,0,49008,50000,355,50000,0,0,0,0,0.00,0.00,0.00,0.00
2014-08-05 14:00:00,0,50000,0,0.00,0,0,0,0,50000,50000,0,50000,0,0,0,0,0.00,0.00,0.00,0.00
2014-08-05 14:10:00,0,50000,0,0.00,0,0,0,0,50000,50000,0,50000,0,0,0,0,0.00,0.00,0.00,0.00
2014-08-05 14:20:00,0,50000,0,0.00,0,0,0,0,50000,50000,0,50000,0,0,0,0,0.00,0.00,0.00,0.00
2014-08-05 14:30:00,0,50000,0,0.00,0,0,0,0,50000,50000,0,50000,0,0,0,0,0.00,0.00,0.00,0.00
2014-08-05 14:40:00,0,50000,0,0.00,0,0,0,0,50000,50000,0,50000,0,0,0,0,0.00,0.00,0.00,0.00
2014-08-05 14:50:00,0,50000,0,0.00,0,0,0,0,50000,50000,0,50000,0,0,0,0,0.00,0.00,0.00,0.00
2014-08-05 15:00:00,0,50000,0,0.00,0,0,0,0,50000,50000,0,50000,0,0,0,0,0.00,0.00,0.00,0.00
2014-08-05 15:10:00,0,50000,0,0.00,0,0,0,0,50000,50000,0,50000,0,0,0,0,0.00,0.00,0.00,0.00
2014-08-05 15:20:00,0,50000,0,0.00,0,0,0,0,50000,50000,0,50000,0,0,0,0,0.00,0.00,0.00,0.00
2014-08-05 15:30:00,0,50000,0,0.00,0,0,0,0,50000,50000,0,50000,0,0,0,0,0.00,0.00,0.00,0.00
2014-08-05 15:40:00,0,50000,0,0.00,0,0,0,0,50000,50000,0,50000,0,0,0,0,0.00,0.00,0.00,0.00
2014-08-05 15:50:00,0,50000,0,0.00,0,0,0,0,50000,50000,0,50000,0,0,0,0,0.00,0.00,0.00,0.00
2014-08-05 16:00:00,0,50000,0,0.00,0,0,0,0,50000,50000,0,50000,0,0,0,0,0.00,0.00,0.00,0.00
2014-08-05 16:10:00,0,49970,0,0.00,0,0,0,0,49697,50000,91,50000,0,0,0,0,0.00,0.00,0.00,0.00
2014-08-05 16:20:00,0,50000,0,0.00,0,0,0,0,50000,50000,0,50000,0,0,0,0,0.00,0.00,0.00,0.00
2014-08-05 16:30:00,0,50000,0,0.00,0,0,0,0,50000,50000,0,50000,0,0,0,0,0.00,0.00,0.00,0.00
2014-08-05 16:40:00,0,49907,53,0.20,0,0,0,0,49368,50000,200,50000,51,61,4,51,0.05,0.45,0.10,0.20
2014-08-05 16:50:00,0,49454,51,0.15,0,0,0,0,46136,50000,1204,50000,51,51,0,51,0.05,0.30,0.07,0.15
2014-08-05 17:00:00,0,48150,51,0.64,0,0,0,0,44041,50000,1918,48616,51,52,0,51,0.20,1.15,0.27,0.62
2014-08-05 17:10:00,0,46867,51,0.47,0,0,0,0,39589,50000,3800,48610,51,52,0,51,0.00,1.30,0.39,0.35
2014-08-05 17:20:00,0,49772,51,0.07,0,0,0,0,48379,50000,504,50000,51,51,0,51,0.00,0.25,0.08,0.05
2014-08-05 17:30:00,0,49783,51,0.17,0,0,0,0,47830,50000,651,50000,51,51,0,51,0.05,0.45,0.12,0.15
2014-08-05 17:40:00,0,48813,51,0.10,0,0,0,0,42413,50000,2486,50000,51,51,0,51,0.00,0.25,0.07,0.08
2014-08-05 17:50:00,0,28210,55,1.08,0,0,0,0,18738,39795,6124,26790,51,61,5,52,0.30,1.85,0.57,1.05
2014-08-05 18:00:00,0,22849,61,3.60,0,2,1,0,18275,31894,3938,21680,61,61,0,61,1.65,5.15,1.15,3.80
2014-08-05 18:10:00,2,23119,61,3.40,0,2,1,2,15918,30563,4103,23340,61,61,0,61,2.35,6.10,1.12,2.75
2014-08-05 18:20:00,0,19155,61,5.24,0,0,0,0,16120,20487,1212,19604,61,61,0,61,2.70,9.90,1.95,4.65
2014-08-05 18:30:00,0,18533,61,5.88,0,0,0,0,14708,24969,3040,17653,61,61,0,61,3.15,7.90,1.50,5.95
2014-08-05 18:40:00,0,18109,61,5.08,0,2,1,0,14502,24213,3148,17182,61,61,0,61,2.75,8.20,1.75,4.62
2014-08-05 18:50:00,2,19494,61,7.30,0,2,1,2,16842,22725,1604,19462,61,62,0,61,4.30,10.55,2.03,6.97
2014-08-05 19:00:00,2,17280,61,8.57,0,2,1,2,13304,23585,2600,17186,61,62,0,61,3.45,15.65,3.98,7.45
2014-08-05 19:10:00,2,20000,61,6.96,2,2,0,2,15279,24463,2679,20462,61,62,0,61,2.50,11.25,2.52,6.60
2014-08-05 19:20:00,2,16510,62,10.68,0,2,1,2,14460,20027,1638,16276,61,62,0,62,5.15,16.70,3.88,10.55
2014-08-05 19:30:00,2,12553,62,16.61,2,2,0,2,10989,13544,799,12642,62,62,0,62,11.00,21.25,3.29,16.88
2014-08-05 19:40:00,2,13402,62,14.32,0,2,1,2,10476,20290,2722,12530,61,62,0,62,6.75,23.10,4.04,14.10
2014-08-05 19:50:00,2,10988,62,14.02,0,2,1,2,9763,12283,937,10830,61,62,0,62,9.15,21.25,3.02,13.58
2014-08-05 20:00:00,2,14868,61,9.62,2,2,0,2,11663,17995,1694,14910,61,62,0,61,4.25,15.15,3.85,9.07
2014-08-05 20:10:00,2,14383,61,8.02,2,2,0,2,11934,18208,1987,14306,61,62,0,61,2.85,13.70,3.58,7.03
2014-08-05 20:20:00,2,11419,61,8.88,0,2,1,2,10036,12177,711,11654,61,62,0,61,4.15,16.00,3.69,8.07
2014-08-05 20:30:00,2,11652,62,10.75,2,2,0,2,9659,14998,1544,11156,61,62,0,62,3.00,19.20,5.03,11.60
2014-08-05 20:40:00,2,18476,61,3.79,2,2,0,2,13401,24729,3617,18030,61,61,0,61,1.20,8.85,2.16,3.25
2014-08-05 20:50:00,2,30088,61,1.23,2,2,0,2,16703,39522,7077,28565,61,61,0,61,0.95,1.90,0.31,1.12
2014-08-05 21:00:00,2,33433,61,0.80,2,2,0,2,20659,44526,7834,33558,61,61,0,61,0.30,1.70,0.42,0.68
2014-08-05 21:10:00,2,19909,61,3.73,2,2,0,2,13197,25577,3874,20165,61,61,0,61,1.70,7.55,1.53,3.70
2014-08-05 21:20:00,2,17031,59,2.25,2,2,0,2,14177,20879,1791,17158,52,61,4,61,1.10,3.30,0.58,2.12
2014-08-05 21:30:00,2,15715,56,1.48,2,2,0,2,12607,18462,2133,15385,52,61,4,56,1.10,2.05,0.29,1.43
2014-08-05 21:40:00,2,18721,55,1.19,2,2,0,2,13495,26834,4408,17076,52,61,4,52,0.55,3.05,0.72,0.93
2014-08-05 21:50:00,2,28865,56,0.34,2,2,0,2,16882,45892,8388,31690,51,61,5,56,0.05,0.65,0.21,0.33
2014-08-05 22:00:00,2,23580,32,0.02,2,2,0,2,15540,34366,6654,22316,0,61,26,51,0.00,0.05,0.02,0.00
2014-08-05 22:10:00,2,20167,0,0.00,2,2,0,2,15613,29847,3973,18766,0,0,0,0,0.00,0.00,0.00,0.00
2014-08-05 22:20:00,2,14092,33,0.11,2,2,0,2,9185,25518,4788,12455,0,61,27,51,0.00,0.25,0.10,0.12
2014-08-05 22:30:00,2,12225,51,0.27,2,2,0,2,9164,15373,2199,12060,51,51,0,51,0.05,0.80,0.21,0.23
2014-08-05 22:40:00,2,9025,53,1.01,2,2,0,2,5432,13556,2834,9406,51,61,4,51,0.15,2.55,0.85,0.60
2014-08-05 22:50:00,2,8587,61,0.61,2,2,0,2,6948,10382,973,8742,61,61,0,61,0.20,1.30,0.38,0.42
2014-08-05 23:00:00,2,8831,61,0.42,2,2,0,2,7577,10953,1254,8268,61,61,0,61,0.15,0.75,0.18,0.40
2014-08-05 23:10:00,2,11750,58,0.26,2,2,0,2,8993,13946,1415,11816,51,61,5,61,0.10,0.55,0.13,0.23
2014-08-05 23:20:00,2,13913,56,0.23,2,2,0,2,10414,16785,2001,13990,51,61,5,56,0.10,0.45,0.11,0.20
2014-08-05 23:30:00,2,12901,59,1.60,2,2,0,2,11014,15014,1311,12708,51,61,4,61,0.45,7.75,2.11,0.70
2014-08-05 23:40:00,2,10968,61,0.43,2,2,0,2,8838,12036,876,11342,61,61,0,61,0.15,1.25,0.32,0.28
2014-08-05 23:50:00,2,10571,61,0.32,2,2,0,2,9363,11460,684,10708,61,61,0,61,0.15,0.70,0.17,0.23
